Regional Weather Roundup
Issued by NWS Wakefield, VA

Home | Current Version | Previous Version | Text Only | Print | Product List | Glossary Off
Versions: 1 2 3 4 5 6 7 8 9 10 11 12 13 14 15 16 17 18 19 20 21 22 23 24 25 26 27 28 29 30 31 32 33 34 35 36 37 38 39 40 41 42 43 44 45 46 47 48 49 50

000
ASUS41 KAKQ 240910
RWRAKQ

REGIONAL WEATHER ROUNDUP
NATIONAL WEATHER SERVICE WAKEFIELD VA
500 AM EDT THU JUL 24 2014

Note: "fair" indicates few or no clouds below 12,000 feet with no
significant weather and/or obstructions to visibility. * = Denotes
station may not report precipitation (e.g., rain,snow,etc.),
thunder or fog.

VAZ042-051-052>054-056-241000-
NORTHERN VIRGINIA

CITY           SKY/WX    TMP DP  RH WIND       PRES   REMARKS
WASH NATIONAL  LGT RAIN  77  69  76 N9        29.88R
DULLES         LGT RAIN  71  69  93 NW6       29.89R
FORT BELVOIR   LGT RAIN  73  72  94 CALM      29.88R FOG
QUANTICO       CLOUDY    75  70  84 N9        29.87S
FREDERICKSBRG* LGT RAIN  75  71  87 N3        29.86S
STAFFORD*      LGT RAIN  73  73 100 NW3       29.91S
WARRENTON      LGT RAIN  73  73 100 NE3       29.88R
CULPEPER*      LGT RAIN N/A N/A N/A N5        29.89R
MANASSAS*      CLOUDY    73  72  94 N8        29.88S
LEESBURG*      DRIZZLE   72  72 100 N6        29.89F
WINCHESTER     CLOUDY    70  66  88 N5        29.90F
$$

VAZ048-049-060>072-079>083-241000-
CENTRAL AND SOUTH CENTRAL VIRGINIA...AND NORTH CENTRAL NORTH CAROLINA

CITY           SKY/WX    TMP DP  RH WIND       PRES   REMARKS
RICHMOND       CLOUDY    79  68  69 N7        29.84F
CHESTERFIELD*  CLOUDY    79  63  57 N5        29.86S
HANOVER        CLOUDY    73  71  93 CALM      29.87F
TAPPAHANNOCK*  CLOUDY    75  68  78 W6        29.86R
CHARLOTTSVILLE CLOUDY    71  69  93 CALM      29.88S
ORANGE*        RAIN      72  68  88 CALM      29.90R
LOUISA*        LGT RAIN  73  70  88 N3        29.87S
FARMVILLE*     CLOUDY    73  66  78 N8        29.86S
SOUTH HILL*    MOCLDY    77  75  94 CALM      29.91S
ROANOKE RAPIDS PTSUNNY   73  70  88 SW8       29.86S
RALEIGH        PTCLDY    75  71  87 SW6       29.89F
$$

VAZ088>098-241000-
SOUTHEAST VIRGINIA

CITY           SKY/WX    TMP DP  RH WIND       PRES   REMARKS
NORFOLK        PTCLDY    78  73  84 SW13      29.83F
VIRGINIA BEACH MOCLDY    77  74  90 SW10      29.83F
NORFOLK NAVAL  MOCLDY    79  74  84 SW5       29.85S
WEST POINT*    CLOUDY    79  73  81 CALM      29.85R
NEWPORT NEWS   MOCLDY    81  74  79 W8        29.84S
LANGLEY AFB    MOCLDY    78  76  92 SW9       29.83S
FORT EUSTIS    MOCLDY    77  77 100 VRB1      29.82S
WILLIAMSBURG*  MOCLDY    81  73  78 W3        29.85S
FRANKLIN*      MOCLDY    77  73  88 CALM      29.85S
WAKEFIELD      MOCLDY    77  72  84 S3        29.85S
$$

VAZ020-022-025-037-045-241000-
WESTERN AND SOUTHWEST VIRGINIA

CITY           SKY/WX    TMP DP  RH WIND       PRES   REMARKS
STAUNTON*      CLOUDY    70  68  93 CALM      29.93S FOG
HOT SPRINGS VA CLOUDY    62  59  91 NW3       30.05S
LYNCHBURG      LGT RAIN  70  68  94 NE6       29.92R
DANVILLE       LGT RAIN  75  71  87 NW5       29.90R
MARTINSVILLE   CLOUDY    71  70  96 CALM      29.93S
ROANOKE        CLOUDY    72  66  83 N5        29.93F
BLACKSBURG     CLOUDY    70  70 100 CALM      30.00R
DUBLIN*        CLOUDY    71  67  87 CALM      29.99R
MARION*        CLOUDY    69  68  99 W5        30.04R FOG
HILLSVILLE*    CLOUDY    66  65  96 CALM      30.01S
RICHLANDS*     FOG       69  67  94 CALM      30.01S VSB 1/4
WISE*          MOCLDY    64  64 100 CALM      30.03S
ABINGDON*      CLOUDY    70  69  99 CALM      30.00R FOG
$$

MDZ021>025-VAZ099-100-241000-
SOUTHERN MARYLAND AND THE DELMARVA PENINSULA

CITY           SKY/WX    TMP DP  RH WIND       PRES   REMARKS
PATUXENT RIVER LGT RAIN  76  73  91 NW9       29.84R
BAY BRIDGE APT   N/A     73  70  88 NE5       29.87R
LEONARDTOWN    CLOUDY    72  70  94 CALM      29.86S
DOVER          CLOUDY    72  72 100 NW6       29.83R
GEORGETOWN     MOCLDY    72  70  93 VRB5      29.85R
EASTON         MOCLDY    74  74 100 CALM      29.88R
CAMBRIDGE      CLOUDY    77  73  88 N6        29.84R
SALISBURY      NOT AVBL
OCEAN CITY     MOCLDY    72  70  93 NW3       29.82F
WALLOPS ISLAND MOCLDY    77  72  84 CALM      29.83S
ACCOMACK*        N/A     73  72  94 CALM      29.83S FOG
$$

NCZ012>017-030>032-241000-
EASTERN NORTH CAROLINA

CITY           SKY/WX    TMP DP  RH WIND       PRES   REMARKS
ELIZABETH CITY CLEAR     76  74  93 SW10      29.86S
AHOSKIE*       PTCLDY    75  72  92 CALM      29.86F
EDENTON*       MOCLDY    78  75  90 SW9       29.87S
CURRITUCK*     CLEAR     77  73  88 SW6       29.86S
KILL DEVIL HLS CLEAR     78  74  90 SW8       29.86S
MANTEO         NOT AVBL
CAPE HATTERAS  MOCLDY    79  77  94 W8        29.90S
GOLDSBORO      PTCLDY    76  76  98 SW7       29.88F
WASHINGTON     PTCLDY    75  73  94 SW5       29.89S
GREENVILLE     CLOUDY    77  73  88 SW6       29.91S
NEW BERN       PTCLDY    78  73  84 SW7       29.91F
WILMINGTON     MOCLDY    78  75  90 SW9       29.93S
$$

VAZ048-241000-
ELSEWHERE

CITY           SKY/WX    TMP DP  RH WIND       PRES   REMARKS
HARRISBURG PA  CLOUDY    72  59  63 N7        29.89R
BALTIMORE      CLOUDY    72  69  90 NW3       29.86R
ANNAPOLIS      CLOUDY    76  70  82 N7        29.86R
ANDREWS AFB    RAIN      75  70  86 N8        29.87S
WILMINGTON DE  MOCLDY    71  68  90 N3        29.86R
PHILADELPHIA   CLOUDY    73  63  70 N10       29.84S
WILDWOOD NJ*   MOCLDY    72  70  94 NW3       29.85R
ATLANTIC CITY  MOCLDY    71  69  93 W5        29.83R
HENDERSON NC   MOCLDY    75  71  88 SW5       29.88F
GREENSBORO     CLOUDY    73  70  90 W5        29.91S
ROCKY MOUNT    PTCLDY    77  74  90 SW7       29.88S
FAYETTEVILLE   PTCLDY    76  74  93 SW7       29.90F
CHARLOTTE      MOCLDY    72  69  90 S3        29.92F
$$

VAZ100-241000-
MARINE

STATION/POSITION TIME  TEMP    WIND        PRES    WAVE   SWELL
                       AIR SEA DIR/SP/G            HT/PER HT/PER
                 (UTC) (F)     (DEG/KT/KT) (MB)    (FT/S) (FT/S)
44066 TX TWR #4  0900   74 74  300/  8/ 10 1007.9F   3/ 4   2/ 4
CAPE MAY NJ      0800   74 77  300/  2/  4 1009.8R
LEWES DE         0800   73 70  290/  3/  4 1010.0S
15NM E FENWICK I 0900   76 76              1009.8R   3/ 5
OCEAN-CITY-INLET 0800   74 75  310/  4/  4 1009.5F
WACHAPREAGUE VA  0800   75 83  260/  3/  4 1010.0R
THOMAS POINT MD  0800   77 80  350/  7/  8 1010.9S
GOOSES REEF MD   0900   78     360/ 12/ 14 1010.8R
COVE POINT MD    0800   78     350/ 11/ 13 1010.0F
SOLOMONS ISLAND  0800      82                N/A
BISHOPS HEAD MD  0800   77 81  340/  5/  7 1009.6F
PINEY POINT MD   0800          350/ 12/ 13   N/A
POTOMAC MD       0900   79     340/ 10/ 14 1009.5S
CAMBRIDGE MD     0800   78 80  330/  9/ 11 1009.9R
LEWISETTA VA     0800   77 82  330/  5/  5 1010.1R
RAPPAHANNOCK LGT 0800          280/  8/  8 1010.6R
STINGRAY PT      0900   80     280/  6/  8 1010.8R
YORK RVR RNG VA  0800   80     260/ 12/ 14 1009.6R
YORKTOWN VA      0800   78 81  240/  8/ 10 1009.7F
JAMESTOWN VA     0900   77     280/  6/  8   N/A
DOMINION TERM VA 0800   79     250/ 12/ 13 1010.4F
KIPTOPEKE VA     0800      82  260/ 12/ 15   N/A
CHES BAY BRIDGE  0800   79 79  220/ 14/ 16 1009.6F
CAPE HENRY VA    0800   79     240/  7/ 13 1009.1F
WILLOUBY STN VA  0800          270/ 10/ 13 1009.3F
S CRANEY ISL VA  0800          210/  4/  6 1010.4F
CAPE HENRY BUOY  0800      78                N/A     3/ 7
1ST LANDING BUOY 0900   80     250/ 12/ 16 1009.9S
CAPE CHARLES BUO 0900      74                N/A     2/ 4
OFFSHORE WE BUOY 0800      78                N/A     3/ 6
64NM E OF VA BCH 0900   78 78  230/ 14/ 16 1010.2F   4/ 6   2/11
DUCK PIER NC     0800   78 73  230/ 14/ 17 1010.6F
44056 DUCK FRF   0800                        N/A     2/ 8
OREGON INLET NC  0800   79 83  230/ 15/ 17 1011.7R
HATTERAS NC      0800   79 82  240/  9/ 13 1012.9F
DIAMOND SHLS NC  0900          VRB 17/ 21  1012.2R   5/ 4   2/ 8
CAPE LOOKOUT NC  0800   80     230/ 12/ 18 1012.9F
$$


USA.gov is the U.S. government's official web portal to all federal, state and local government web resources and services.